Regional Weather Roundup
Issued by NWS

Home | Current Version | Previous Version | Graphics & Text | Print | Product List | Glossary On
Versions: 1 2 3 4 5 6 7 8 9 10 11 12 13 14 15 16 17 18 19 20 21 22 23 24 25 26 27 28 29 30 31 32 33 34 35 36 37 38 39 40 41 42 43 44 45 46 47 48 49 50
000
ASUS45 KBOU 031807
RWRCO

WEATHER ROUNDUP FOR COLORADO
NATIONAL WEATHER SERVICE DENVER/BOULDER CO
1200 PM MDT SUN MAY 03 2015

NOTE: "FAIR" INDICATES FEW OR NO CLOUDS BELOW 12000 FEET WITH NO
SIGNIFICANT WEATHER AND/OR OBSTRUCTIONS TO VISIBILITY.

COZ001>005-013-030-031-031900-
...NORTHWEST COLORADO...

CITY           SKY/WX    TMP DP  RH WIND       PRES   REMARKS
CRAIG          SUNNY     69  37  30 W13G20    30.02F
HAYDEN         MOSUNNY   64  32  29 NW14      30.03F
MEEKER         LGT RAIN  62  40  44 S9        30.05R
MOUNT WERNER   NOT AVBL
STEAMBOAT SPGS MOSUNNY   64  33  30 W9G17     30.05F
WALDEN         MOSUNNY   55  32  41 SW5       30.11S
$$

COZ006>008-011-031900-
...WEST CENTRAL VALLEYS...

CITY           SKY/WX    TMP DP  RH WIND       PRES   REMARKS
GRAND JUNCTION PTSUNNY   71  32  23 NW3       29.98S
MONTROSE       CLOUDY    68  30  24 W13       30.05S
EAGLE          MOSUNNY   68  30  24 CALM      30.06F
RIFLE          MOSUNNY   74  31  20 W17G23    29.99F
DELTA          MOSUNNY   76  29  18 S9        30.00F
NUCLA          MOSUNNY   68  32  26 S14G20    30.11F
$$

COZ017>023-064>068-031900-
...SOUTHWEST COLORADO...

CITY           SKY/WX    TMP DP  RH WIND       PRES   REMARKS
DURANGO        PTSUNNY   62  35  36 W12       30.13S
CORTEZ         SUNNY     67  38  34 NE13      30.10F
PAGOSA SPRINGS PTSUNNY   63  28  27 W3        30.14F
TELLURIDE      PTSUNNY   54  31  40 W9        30.24F
WOLF CREEK PAS NOT AVBL
$$

COZ009-010-012-014-032>034-037-058>063-031900-
...CENTRAL COLORADO...

CITY           SKY/WX    TMP DP  RH WIND       PRES   REMARKS
ASPEN          PTSUNNY   61  28  28 NE7       30.09F
BUENA VISTA    NOT AVBL
COPPER MTN     PTSUNNY   45  19  36 W10G17    30.33F
BERTHOUD PASS  PTSUNNY   36  28  75 CALM      30.38R
COTTONWOOD PAS MOSUNNY   61  27  27 E9G18     30.22F
GUNNISON       MOSUNNY   61  30  31 W3        30.15F
KREMMLING      MOSUNNY   64  27  24 CALM      30.08F
LEADVILLE      CLOUDY    52  22  30 NW10      30.21S
MONARCH PASS   MOSUNNY   41  19  42 CALM      30.44F
SALIDA         MOSUNNY   69  24  18 CALM      30.17F
SUNLIGHT       PTSUNNY   50  27  40 W3        30.30F
WILKERSON PASS PTSUNNY   50  23  34 W5        30.33F
$$

COZ069>075-031900-
...SAN LUIS VALLEY/SANGRE DE CRISTO MOUNTAINS...

CITY           SKY/WX    TMP DP  RH WIND       PRES   REMARKS
ALAMOSA        PTSUNNY   62  31  31 S6        30.12F
LA VETA PASS   MOSUNNY   55  27  33 MISG      30.25F
SAGUACHE       MOSUNNY   59  32  36 S5        30.15F
$$

COZ035-036-038>040-031900-
...NORTHERN COLORADO FRONT RANGE...

CITY           SKY/WX    TMP DP  RH WIND       PRES   REMARKS
DENVER INTL AP PTSUNNY   73  37  27 E13       29.99S
DMNS CITY PARK   N/A     71  28  20 E7        29.97F
AURORA         PTSUNNY   73  33  23 NE8       30.00F
FRONT RANGE AP MOSUNNY   73  39  29 NE10      30.01S
ERIE MUNI ARPT MOSUNNY   75  34  22 SE5G17    29.96F
BOULDER MUN AP MOSUNNY   73  34  23 E7        29.96F
CENTENNIAL     PTSUNNY   74  30  19 E6        30.00F
BROOMFIELD     PTSUNNY   73  30  20 E3        30.00S
FORT COLLINS   MOSUNNY   75  43  31 SE6       29.97S
LONGMONT       MOSUNNY   78  40  25 E10       29.97F
$$

COZ041-046-047-076>085-087-088-031900-
...PIKES PEAK/PALMER DIVIDE AND SOUTHERN FOOTHILLS...

CITY           SKY/WX    TMP DP  RH WIND       PRES   REMARKS
COLO. SPRINGS  PTSUNNY   70  25  18 NE6       30.03R
A. F. ACADEMY  PTSUNNY   67  27  22 E9        30.03S
ELLICOTT       PTSUNNY  N/A N/A N/A VRB6      30.01S
FALCON         PTSUNNY   67  21  17 CALM      30.08S
FORT CARSON    CLOUDY    71  30  22 NW22G37   29.99S
LIMON          SUNNY     75  30  19 MISG      29.98F
MONUMENT HILL  MOSUNNY   68  28  22 NE8       30.07S
TRINIDAD       PTSUNNY   74  30  19 NE3       30.00F
$$

COZ042>045-048>051-090-091-031900-
...NORTHEAST COLORADO...

CITY           SKY/WX    TMP DP  RH WIND       PRES   REMARKS
GREELEY ARPT   SUNNY     75  41  29 SE8       29.96F
AKRON          SUNNY     74  38  27 N13       29.96S
BURLINGTON     MOSUNNY   80  38  22 N8        29.92F
WRAY           SUNNY     81  37  21 NW13G21   29.89S
STERLING       SUNNY     73  45  35 N8        29.93S
HOLYOKE        NOT AVBL
FORT MORGAN    SUNNY    N/A N/A N/A N7        29.96F
$$

COZ086-089-092>099-031900-
...SOUTHEAST COLORADO...

CITY           SKY/WX    TMP DP  RH WIND       PRES   REMARKS
PUEBLO         MOSUNNY   81  31  16 NE10      29.92F
LA JUNTA       PTSUNNY   79  38  22 MISG      29.92F
LAMAR          PTSUNNY   78  42  27 NW8       29.89S
SPRINGFIELD      N/A     80  34  19 CALM      29.92F
$$


USA.gov is the U.S. government's official web portal to all federal, state and local government web resources and services.